Home   Weather   Majuro   Past weeks
Flag for Marshall Islands

Past Weather in Majuro, Marshall Islands — Yesterday and Last 2 Weeks

Now
82 °F

Overcast.


Feels Like: 89 °F
Forecast: 83 / 80 °F
Wind: 8 mph from East

Location: Majuro Atoll

Current Time: Mar 26, 2019 at 1:03:52 am

Latest Report: Mar 25, 2019 at 11:52 pm


Visibility: 15 mi

Pressure: 29.88 "Hg

Humidity: 84%

Dew Point: 76 °F

Location of MajuroLocation

Past Weather in Majuro — Graph

°F

Majuro Temperature Yesterday

Maximum temperature yesterday: 85 °F (at 2:55 pm)
Minimum temperature yesterday: 76 °F (at 6:50 am)
Average temperature yesterday: 81 °F

High & Low Weather Summary for the Past Weeks

 TemperatureHumidityPressure
High87 °F (Mar 20, 11:55 am)94% (Mar 25, 6:50 am)29.90 "Hg (Mar 25, 6:50 am)
Low76 °F (Mar 25, 6:50 am)62% (Mar 15, 1:50 pm)29.73 "Hg (Mar 16, 3:58 pm)
Average82 °F78%29.82 "Hg
* Reported Mar 10 11:54 pm — Mar 25 11:52 pm, Majuro. Weather by CustomWeather, © 2019

Note: Actual official high and low records may vary slightly from our data, if they occured in-between our weather recording intervals... More about our weather records

Advertising

Majuro Weather History for the Previous 24 Hours

Scroll right to see more
 ConditionsComfort  
Time TempWeatherWind HumidityBarometerVisibility
11:52 pm
Mon, Mar 25
82 °FOvercast.8 mph84%29.88 "Hg15 mi
10:52 pm81 °FOvercast.9 mph85%29.90 "Hg15 mi
9:58 pm81 °FSprinkles. Overcast.18 mph84%29.89 "Hg12 mi
8:55 pm82 °FPartly cloudy.14 mph84%29.87 "Hg15 mi
7:55 pm82 °FPartly cloudy.14 mph84%29.85 "Hg15 mi
6:56 pm82 °FBroken clouds.14 mph83%29.83 "Hg15 mi
5:58 pm82 °FBroken clouds.15 mph82%29.82 "Hg15 mi
4:58 pm83 °FBroken clouds.14 mph81%29.80 "Hg15 mi
3:54 pm83 °FBroken clouds.8 mph80%29.80 "Hg15 mi
2:55 pm85 °FCloudy.14 mph75%29.80 "Hg15 mi
1:54 pm84 °FCloudy.8 mph78%29.82 "Hg15 mi
12:51 pm84 °FCloudy.10 mph80%29.85 "Hg15 mi
11:53 am84 °FCloudy.13 mph78%29.86 "Hg15 mi
10:53 am80 °FCloudy.9 mph86%29.88 "Hg15 mi
9:55 am79 °FLight rain. More clouds than sun.9 mph88%29.89 "Hg14 mi
8:53 am77 °FLight rain. More clouds than sun.7 mph91%29.90 "Hg14 mi
7:52 am76 °FSprinkles. Cloudy.9 mph93%29.90 "Hg10 mi
6:50 am76 °FSprinkles. Overcast.12 mph94%29.90 "Hg7 mi
5:51 am78 °FSprinkles. Overcast.20 mph92%29.87 "Hg8 mi
4:58 am81 °FOvercast.12 mph84%29.84 "Hg15 mi
3:51 am81 °FOvercast.14 mph84%29.85 "Hg15 mi
1:53 am81 °FPartly cloudy.18 mph84%29.85 "Hg15 mi
Weather by CustomWeather, © 2019

See weather overview